Orbital Elements at Epoch 2459200.5 (2020-Dec-17.0) TDB
Reference: JPL 22 (heliocentric ecliptic J2000)
Element | Value | Uncertainty (1-sigma) | Units |
e | .1520476660340328 | 5.2201e-08 | |
a | 2.602097705416692 | 1.8966e-08 | au |
q | 2.206454822515572 | 1.2839e-07 | au |
i | 5.597753354612986 | 4.8181e-06 | deg |
node | 104.59714276562 | 5.4304e-05 | deg |
peri | 358.9688802320362 | 5.7202e-05 | deg |
M | 160.500731752591 | 1.9975e-05 | deg |
tp | 2458516.968800620912 (2019-Feb-02.46880062) | 8.1078e-05 | TDB |
period | 1533.14710213151 4.20 | 1.6762e-05 4.589e-08 | d yr |
n | .2348111277120751 | 2.5672e-09 | deg/d |
Q | 2.997740588317812 | 2.1849e-08 | au |
|
| | Orbit Determination Parameters
Additional Information
|